Weather History for Klamath Falls, OR

Change the Weather History Date:

Sunday, April 1, 2012

  Actual Average Record
Temperature  
Mean Temperature 34 °F 40 °F  
Max Temperature 42 °F 53 °F 73 °F (1987)
Min Temperature 26 °F 27 °F 11 °F (1982)
Degree Days  
Heating Degree Days 31 25  
Month to date heating degree days 31 25  
Since 1 July heating degree days 5578 5687  
Cooling Degree Days 0 0  
Month to date cooling degree days 0 0  
Year to date cooling degree days 0 0  
Moisture  
Dew Point 27 °F    
Average Humidity 79    
Maximum Humidity 96    
Minimum Humidity 52    
Precipitation  
Precipitation T in 0.03 in 0.74 in (1974)
Month to date precipitation T 0.03  
Year to date precipitation 3.53 5.07  
Sea Level Pressure  
Sea Level Pressure 30.02 in    
Wind  
Wind Speed 12 mph (West)    
Max Wind Speed 29 mph    
Max Gust Speed 37 mph    
Visibility 8 miles    
Events Rain , Snow    
T = Trace of Precipitation, MM = Missing Value Source: NWS Daily Summary

Daily Weather History Graph

Daily Weather History Graph

Search for Another Location

Airport:

Trip Planner

Search our weather history database for the weather conditions in past years. The results will help you decide how hot, cold, wet, or windy it might be!

Date:

Astronomy

Apr. 01, 2012 Rise Set
Actual Time 6:48 AM PDT 7:33 PM PDT
Civil Twilight 6:20 AM PDT 8:01 PM PDT
Nautical Twilight 5:46 AM PDT 8:35 PM PDT
Astronomical Twilight 5:12 AM PDT 9:10 PM PDT
Moon 2:03 PM PDT (4/1) 3:34 AM PDT (4/1)
Length of Visible Light 13h 41m
Length of Day
12h 44m
Waxing Gibbous, 70% of the Moon is Illuminated
Apr 1
Waxing Gibbous
Apr 6
Full
Apr 13
Last Quarter
Apr 21
New
Apr 29
First Quarter

Hourly Weather History & Observations

Time (PDT) Temp. Windchill Dew Point Humidity Pressure Visibility Wind Dir Wind Speed Gust Speed Precip Events Conditions
12:53 AM 33.1 °F 24.4 °F 30.9 °F 92% 29.78 in 8.0 mi WSW 11.5 mph - 0.00 in Snow Light Snow
1:13 AM 33.8 °F 23.9 °F 30.2 °F 87% 29.76 in 10.0 mi WSW 15.0 mph - 0.00 in   Overcast
1:25 AM 33.8 °F 22.8 °F 30.2 °F 87% 29.76 in 5.0 mi WSW 18.4 mph - 0.00 in Snow Light Snow
1:35 AM 33.8 °F 22.5 °F 30.2 °F 87% 29.77 in 7.0 mi WSW 19.6 mph 27.6 mph 0.00 in Snow Light Snow
1:41 AM 33.8 °F 22.2 °F 30.2 °F 87% 29.77 in 2.0 mi West 20.7 mph 27.6 mph 0.00 in Snow Light Snow
1:46 AM 32.0 °F 20.5 °F 30.2 °F 93% 29.78 in 1.0 mi West 18.4 mph 27.6 mph 0.00 in Snow Light Snow
1:53 AM 32.0 °F 19.5 °F 28.9 °F 88% 29.80 in 1.2 mi West 21.9 mph 27.6 mph 0.00 in Snow Light Snow
1:57 AM 32.0 °F 18.4 °F 26.6 °F 80% 29.78 in 3.0 mi West 26.5 mph 35.7 mph 0.00 in Snow Light Snow
2:10 AM 32.0 °F 18.9 °F 26.6 °F 80% 29.79 in 10.0 mi West 24.2 mph 36.8 mph 0.00 in   Mostly Cloudy
2:53 AM 30.2 °F 17.8 °F 24.8 °F 80% 29.84 in 10.0 mi WNW 19.6 mph 28.8 mph N/A   Mostly Cloudy
3:25 AM 30.2 °F 18.9 °F 26.6 °F 86% 29.88 in 3.0 mi West 16.1 mph 28.8 mph 0.00 in Snow Light Snow
3:35 AM 30.2 °F 19.8 °F 26.6 °F 86% 29.88 in 8.0 mi West 13.8 mph - 0.00 in Snow Light Snow
3:53 AM 30.0 °F 20.5 °F 21.0 °F 69% 29.92 in 10.0 mi West 11.5 mph - 0.00 in   Mostly Cloudy
4:53 AM 28.0 °F 20.8 °F 21.9 °F 78% 29.97 in 10.0 mi WNW 6.9 mph - N/A   Partly Cloudy
5:53 AM 27.0 °F 17.3 °F 21.9 °F 81% 30.01 in 10.0 mi West 10.4 mph - N/A   Partly Cloudy
6:00 AM 26.6 °F 19.1 °F 21.2 °F 80% 29.98 in 10.0 mi West 6.9 mph - N/A   Scattered Clouds
6:53 AM 27.0 °F 16.1 °F 19.9 °F 75% 30.04 in 10.0 mi West 12.7 mph - N/A   Scattered Clouds
7:02 AM 28.4 °F 18.0 °F 21.2 °F 74% 30.01 in 10.0 mi West 12.7 mph - 0.00 in Snow Light Snow
7:53 AM 28.9 °F 21.1 °F 21.0 °F 72% 30.08 in 10.0 mi West 8.1 mph - 0.00 in Snow Light Snow
8:20 AM 28.4 °F 18.0 °F 21.2 °F 74% 30.04 in 10.0 mi West 12.7 mph - 0.00 in   Mostly Cloudy
8:53 AM 30.0 °F 21.1 °F 23.0 °F 75% 30.10 in 10.0 mi WSW 10.4 mph - 0.00 in   Mostly Cloudy
9:53 AM 32.0 °F 23.0 °F 21.9 °F 66% 30.11 in 10.0 mi West 11.5 mph 23.0 mph N/A   Mostly Cloudy
10:53 AM 34.0 °F 25.0 °F 24.1 °F 67% 30.11 in 10.0 mi WSW 12.7 mph - N/A   Mostly Cloudy
11:53 AM 36.0 °F 27.1 °F 24.1 °F 62% 30.12 in 10.0 mi WSW 13.8 mph 20.7 mph N/A   Mostly Cloudy
12:53 PM 37.0 °F 30.4 °F 21.9 °F 54% 30.12 in 10.0 mi WSW 9.2 mph - N/A   Mostly Cloudy
1:53 PM 39.9 °F 31.8 °F 25.0 °F 55% 30.12 in 10.0 mi WSW 15.0 mph 23.0 mph N/A   Mostly Cloudy
2:53 PM 39.0 °F 30.3 °F 28.0 °F 65% 30.12 in 10.0 mi WSW 16.1 mph 25.3 mph N/A   Mostly Cloudy
3:53 PM 41.0 °F 32.5 °F 30.2 °F 65% 30.09 in 10.0 mi West 17.3 mph 27.6 mph N/A   Mostly Cloudy
4:53 PM 41.0 °F 31.1 °F 28.9 °F 62% 30.12 in 10.0 mi West 23.0 mph 33.4 mph N/A   Mostly Cloudy
5:24 PM 39.2 °F 29.6 °F 30.2 °F 70% 30.10 in 10.0 mi West 19.6 mph 25.3 mph 0.00 in Rain Light Rain
5:44 PM 37.4 °F 27.8 °F 30.2 °F 75% 30.11 in 7.0 mi West 17.3 mph 27.6 mph 0.00 in Rain , Snow Light Rain
5:53 PM 37.9 °F 28.5 °F 30.9 °F 76% 30.16 in 7.0 mi West 17.3 mph - 0.00 in Rain , Snow Light Rain
6:53 PM 36.0 °F 30.3 °F 32.0 °F 86% 30.19 in 7.0 mi WSW 6.9 mph - 0.00 in Rain , Snow Light Rain
7:53 PM 34.0 °F 24.6 °F 32.0 °F 92% 30.21 in 7.0 mi WSW 13.8 mph - 0.00 in Rain , Snow Light Rain
8:37 PM 33.8 °F 26.4 °F 32.0 °F 93% 30.18 in 7.0 mi WSW 9.2 mph - 0.00 in   Mostly Cloudy
8:53 PM 33.1 °F 26.1 °F 32.0 °F 96% 30.24 in 7.0 mi SW 8.1 mph - 0.00 in   Mostly Cloudy
9:28 PM 33.8 °F 25.3 °F 30.2 °F 87% 30.20 in 7.0 mi West 11.5 mph - N/A   Mostly Cloudy
9:53 PM 32.0 °F 24.2 °F 28.9 °F 88% 30.25 in 7.0 mi West 9.2 mph - N/A   Mostly Cloudy
10:53 PM 30.0 °F - 27.0 °F 88% 30.27 in 10.0 mi Calm Calm - N/A   Clear
11:53 PM 30.0 °F 26.5 °F 26.1 °F 85% 30.28 in 10.0 mi WSW 3.5 mph - N/A   Clear